Tracking 20623 objects as of 3-Apr-2020
HD Live streaming from Space Station
objects crossing your sky now

SL-3 R/B

Track SL-3 R/B now!
10-day predictions


NORAD ID: 12586
Int'l Code: 1981-065B
Perigee: 529.3 km
Apogee: 553.2 km
Inclination: 97.6 °
Period: 95.3 minutes
Semi major axis: 6912 km
RCS: 7.238 m2 (large)
Launch date: July 10, 1981
Source: Commonwealth of Independent States (former USSR) (CIS)
Launch site: TYURATAM MISSILE AND SPACE COMPLEX (TTMTR)

Note: This is a ROCKET BODY
aabbcc
Your satellite tracking list
Your tracking list is empty




NASA's NSSDC Master Catalog

Two Line Element Set (TLE):
1 12586U 81065B   20094.51440353 +.00000302 +00000-0 +22149-4 0  9999
2 12586 097.6156 077.5266 0017304 297.5802 062.3670 15.10696071106501
Source of the keplerian elements: AFSPC